When you browse on this site, cookies collect data to enhance your experience and personalize the content and advertising you see.
Visit our Privacy Policy to learn more. By continuing to use the site, you agree to this use of cookies and data.
  • In Switzerland
  • List of Countries
  • For 7 days
  • Water Temperature
  • Weather Map
  • Weather Widgets
  • user-avatar
    Login

    Hourly Weather Armawir

    Today, 16 October, Wednesday

    Time Temperature Precipitation Wind Pressure Humidity
    00:00 +13°C° 0 mm 0 mps 691 mmHg 32%
    01:00 +14°C° 0 mm 1 mps 691 mmHg 33%
    02:00 +14°C° 0 mm 1 mps 690 mmHg 34%
    03:00 +13°C° 0 mm 1 mps 690 mmHg 35%
    04:00 +13°C° 0 mm 1 mps 690 mmHg 36%
    05:00 +12°C° 0 mm 1 mps 690 mmHg 37%
    06:00 +12°C° 0 mm 1 mps 690 mmHg 37%
    07:00 +15°C° 0 mm 1 mps 691 mmHg 30%
    08:00 +19°C° 0 mm 1 mps 692 mmHg 23%
    09:00 +22°C° 0 mm 1 mps 693 mmHg 16%
    10:00 +24°C° 0 mm 1 mps 692 mmHg 15%
    11:00 +25°C° 0 mm 1 mps 692 mmHg 13%
    12:00 +27°C° 0 mm 1 mps 692 mmHg 12%
    13:00 +27°C° 0 mm 1 mps 692 mmHg 11%
    14:00 +28°C° 0 mm 1 mps 692 mmHg 11%
    15:00 +29°C° 0 mm 2 mps 691 mmHg 10%
    16:00 +26°C° 0 mm 1 mps 691 mmHg 14%
    17:00 +23°C° 0 mm 1 mps 690 mmHg 17%
    18:00 +20°C° 0 mm 1 mps 690 mmHg 21%
    19:00 +19°C° 0 mm 1 mps 690 mmHg 22%
    20:00 +18°C° 0 mm 1 mps 690 mmHg 22%
    21:00 +18°C° 0 mm 1 mps 690 mmHg 23%
    22:00 +16°C° 0 mm 1 mps 690 mmHg 26%
    23:00 +15°C° 0 mm 1 mps 690 mmHg 28%

    Tomorrow, 17 October, Thursday

    Time Temperature Precipitation Wind Pressure Humidity
    00:00 +15°C° 0 mm 1 mps 690 mmHg 31%
    01:00 +14°C° 0 mm 1 mps 691 mmHg 32%
    02:00 +14°C° 0 mm 1 mps 691 mmHg 34%
    03:00 +14°C° 0 mm 1 mps 691 mmHg 35%
    04:00 +13°C° 0 mm 1 mps 691 mmHg 36%
    05:00 +13°C° 0 mm 1 mps 691 mmHg 37%
    06:00 +13°C° 0 mm 1 mps 691 mmHg 38%
    07:00 +16°C° 0 mm 1 mps 691 mmHg 31%
    08:00 +20°C° 0 mm 1 mps 692 mmHg 24%
    09:00 +23°C° 0 mm 1 mps 693 mmHg 17%
    10:00 +24°C° 0 mm 1 mps 693 mmHg 15%
    11:00 +26°C° 0 mm 1 mps 693 mmHg 14%
    12:00 +27°C° 0 mm 1 mps 693 mmHg 12%
    13:00 +27°C° 0 mm 2 mps 692 mmHg 12%
    14:00 +28°C° 0 mm 2 mps 692 mmHg 11%
    15:00 +29°C° 0 mm 2 mps 692 mmHg 11%
    16:00 +26°C° 0 mm 2 mps 691 mmHg 13%
    17:00 +23°C° 0 mm 1 mps 691 mmHg 16%
    18:00 +20°C° 0 mm 1 mps 690 mmHg 19%
    19:00 +19°C° 0 mm 1 mps 690 mmHg 20%
    20:00 +19°C° 0 mm 1 mps 691 mmHg 21%
    21:00 +18°C° 0 mm 1 mps 691 mmHg 21%
    22:00 +18°C° 0 mm 1 mps 691 mmHg 23%
    23:00 +16°C° 0 mm 1 mps 690 mmHg 25%

    Day after tomorrow, 18 October, Friday

    Time Temperature Precipitation Wind Pressure Humidity
    00:00 +16°C° 0 mm 1 mps 690 mmHg 27%
    01:00 +15°C° 0 mm 1 mps 690 mmHg 28%
    02:00 +15°C° 0 mm 1 mps 690 mmHg 28%
    03:00 +15°C° 0 mm 1 mps 690 mmHg 29%
    04:00 +15°C° 0 mm 1 mps 690 mmHg 29%
    05:00 +15°C° 0 mm 1 mps 690 mmHg 29%
    06:00 +14°C° 0 mm 1 mps 690 mmHg 29%
    07:00 +18°C° 0 mm 1 mps 690 mmHg 25%
    08:00 +21°C° 0 mm 1 mps 691 mmHg 21%
    09:00 +23°C° 0 mm 1 mps 691 mmHg 16%
    10:00 +25°C° 0.1 mm 1 mps 691 mmHg 16%
    11:00 +26°C° 0.1 mm 1 mps 691 mmHg 16%
    12:00 +27°C° 0.1 mm 1 mps 691 mmHg 17%
    13:00 +28°C° 0 mm 2 mps 690 mmHg 17%
    14:00 +28°C° 0 mm 2 mps 690 mmHg 17%
    15:00 +29°C° 0 mm 2 mps 690 mmHg 18%
    16:00 +26°C° 0.1 mm 2 mps 689 mmHg 23%
    17:00 +24°C° 0.1 mm 1 mps 689 mmHg 28%
    18:00 +21°C° 0.1 mm 1 mps 689 mmHg 33%
    19:00 +20°C° 0 mm 1 mps 689 mmHg 34%
    20:00 +20°C° 0 mm 1 mps 689 mmHg 35%
    21:00 +19°C° 0 mm 1 mps 689 mmHg 37%
    22:00 +19°C° 0 mm 1 mps 689 mmHg 39%
    23:00 +18°C° 0 mm 1 mps 689 mmHg 42%

    19 October, Saturday

    Time Temperature Precipitation Wind Pressure Humidity
    00:00 +18°C° 0 mm 1 mps 689 mmHg 44%
    01:00 +18°C° 0 mm 1 mps 689 mmHg 45%
    02:00 +16°C° 0 mm 1 mps 688 mmHg 45%
    03:00 +16°C° 0 mm 1 mps 688 mmHg 45%
    04:00 +16°C° 0 mm 1 mps 688 mmHg 46%
    05:00 +16°C° 0 mm 1 mps 689 mmHg 47%
    06:00 +15°C° 0 mm 1 mps 689 mmHg 48%
    07:00 +19°C° 0 mm 1 mps 689 mmHg 41%
    08:00 +21°C° 0 mm 1 mps 690 mmHg 35%
    09:00 +23°C° 0 mm 1 mps 690 mmHg 28%
    10:00 +25°C° 0.1 mm 1 mps 690 mmHg 27%
    11:00 +26°C° 0.1 mm 1 mps 690 mmHg 26%
    12:00 +27°C° 0.1 mm 1 mps 690 mmHg 25%
    13:00 +27°C° 0.4 mm 1 mps 690 mmHg 28%
    14:00 +26°C° 0.4 mm 1 mps 689 mmHg 30%
    15:00 +26°C° 0.4 mm 1 mps 689 mmHg 32%
    16:00 +24°C° 0.3 mm 1 mps 689 mmHg 39%
    17:00 +23°C° 0.3 mm 1 mps 689 mmHg 45%
    18:00 +21°C° 0.3 mm 1 mps 689 mmHg 51%
    19:00 +21°C° 0.1 mm 1 mps 689 mmHg 51%
    20:00 +21°C° 0.1 mm 1 mps 689 mmHg 50%
    21:00 +21°C° 0.1 mm 1 mps 690 mmHg 50%
    22:00 +20°C° 0 mm 1 mps 690 mmHg 51%
    23:00 +20°C° 0 mm 1 mps 690 mmHg 51%

    20 October, Sunday

    Time Temperature Precipitation Wind Pressure Humidity
    00:00 +20°C° 0 mm 1 mps 690 mmHg 51%
    01:00 +19°C° 0.1 mm 1 mps 690 mmHg 53%
    02:00 +19°C° 0.1 mm 1 mps 690 mmHg 55%
    03:00 +18°C° 0.1 mm 1 mps 689 mmHg 57%
    04:00 +18°C° 0.2 mm 1 mps 689 mmHg 58%
    05:00 +18°C° 0.2 mm 1 mps 690 mmHg 59%
    06:00 +18°C° 0.2 mm 1 mps 690 mmHg 60%
    07:00 +19°C° 0 mm 1 mps 690 mmHg 55%
    08:00 +21°C° 0 mm 1 mps 690 mmHg 50%
    09:00 +22°C° 0 mm 1 mps 690 mmHg 46%
    10:00 +23°C° 0 mm 1 mps 690 mmHg 42%
    11:00 +24°C° 0 mm 1 mps 690 mmHg 38%
    12:00 +26°C° 0 mm 1 mps 690 mmHg 35%
    13:00 +26°C° 0 mm 2 mps 690 mmHg 33%
    14:00 +27°C° 0 mm 2 mps 690 mmHg 31%
    15:00 +27°C° 0 mm 2 mps 690 mmHg 30%
    16:00 +25°C° 0 mm 2 mps 689 mmHg 35%
    17:00 +23°C° 0 mm 1 mps 689 mmHg 41%
    18:00 +22°C° 0 mm 1 mps 689 mmHg 46%
    19:00 +21°C° 0.1 mm 1 mps 689 mmHg 48%
    20:00 +20°C° 0.1 mm 2 mps 690 mmHg 50%
    21:00 +19°C° 0.1 mm 2 mps 690 mmHg 51%
    22:00 +19°C° 0.1 mm 2 mps 690 mmHg 54%
    23:00 +18°C° 0.1 mm 2 mps 690 mmHg 57%

    21 October, Monday

    Time Temperature Precipitation Wind Pressure Humidity
    00:00 +17°C° 0.1 mm 2 mps 690 mmHg 60%
    01:00 +17°C° 0 mm 2 mps 690 mmHg 62%
    02:00 +18°C° 0 mm 1 mps 690 mmHg 64%
    03:00 +16°C° 0 mm 1 mps 690 mmHg 66%
    04:00 +16°C° 0 mm 1 mps 690 mmHg 67%
    05:00 +15°C° 0 mm 1 mps 690 mmHg 68%
    06:00 +15°C° 0 mm 1 mps 690 mmHg 69%
    07:00 +18°C° 0 mm 1 mps 690 mmHg 63%
    08:00 +19°C° 0 mm 1 mps 691 mmHg 57%
    09:00 +21°C° 0 mm 1 mps 691 mmHg 51%
    10:00 +22°C° 0.1 mm 1 mps 691 mmHg 47%
    11:00 +23°C° 0.1 mm 2 mps 691 mmHg 44%
    12:00 +24°C° 0.1 mm 2 mps 691 mmHg 40%
    13:00 +24°C° 0.1 mm 2 mps 691 mmHg 38%
    14:00 +25°C° 0.1 mm 2 mps 691 mmHg 36%
    15:00 +25°C° 0.1 mm 3 mps 690 mmHg 34%
    16:00 +24°C° 0.1 mm 2 mps 690 mmHg 38%
    17:00 +21°C° 0.1 mm 2 mps 690 mmHg 42%
    18:00 +20°C° 0.1 mm 2 mps 690 mmHg 47%
    19:00 +19°C° 0 mm 2 mps 690 mmHg 50%
    20:00 +18°C° 0 mm 2 mps 690 mmHg 54%
    21:00 +17°C° 0 mm 2 mps 690 mmHg 58%
    22:00 +17°C° 0 mm 2 mps 690 mmHg 59%
    23:00 +16°C° 0 mm 1 mps 690 mmHg 61%
    Show more